Year,Month,Day,Hour,Minute,Value (Times are PST for windgust in km/hr)
2018,08,21,00,00,12.90
2018,08,21,00,01,4.80
2018,08,21,00,02,4.80
2018,08,21,00,03,4.80
2018,08,21,00,04,4.80
2018,08,21,00,05,4.80
2018,08,21,00,06,4.80
2018,08,21,00,07,4.80
2018,08,21,00,08,4.80
2018,08,21,00,09,4.80
2018,08,21,00,10,4.80
2018,08,21,00,11,9.60
2018,08,21,00,12,11.30
2018,08,21,00,13,11.30
2018,08,21,00,14,9.60
2018,08,21,00,15,11.30
2018,08,21,00,16,11.30
2018,08,21,00,17,11.30
2018,08,21,00,18,9.60
2018,08,21,00,19,11.30
2018,08,21,00,20,9.60
2018,08,21,00,21,9.60
2018,08,21,00,22,9.60
2018,08,21,00,23,9.60
2018,08,21,00,24,11.30
2018,08,21,00,25,6.40
2018,08,21,00,26,9.60
2018,08,21,00,27,6.40
2018,08,21,00,28,6.40
2018,08,21,00,29,6.40
2018,08,21,00,30,6.40
2018,08,21,00,31,6.40
2018,08,21,00,32,4.80
2018,08,21,00,33,4.80
2018,08,21,00,34,4.80
2018,08,21,00,35,6.40
2018,08,21,00,36,4.80
2018,08,21,00,37,6.40
2018,08,21,00,38,4.80
2018,08,21,00,39,4.80
2018,08,21,00,40,4.80
2018,08,21,00,41,6.40
2018,08,21,00,42,4.80
2018,08,21,00,43,4.80
2018,08,21,00,44,4.80
2018,08,21,00,45,6.40
2018,08,21,00,46,6.40
2018,08,21,00,47,6.40
2018,08,21,00,48,6.40
2018,08,21,00,49,6.40
2018,08,21,00,50,6.40
2018,08,21,00,51,6.40
2018,08,21,00,52,6.40
2018,08,21,00,53,4.80
2018,08,21,00,54,4.80
2018,08,21,00,55,4.80
2018,08,21,00,56,3.20
2018,08,21,00,57,4.80
2018,08,21,00,58,3.20
2018,08,21,00,59,3.20
2018,08,21,01,00,3.20
2018,08,21,01,01,4.80
2018,08,21,01,02,4.80
2018,08,21,01,03,3.20
2018,08,21,01,04,3.20
2018,08,21,01,05,4.80
2018,08,21,01,06,3.20
2018,08,21,01,07,3.20
2018,08,21,01,08,3.20
2018,08,21,01,09,3.20
2018,08,21,01,10,3.20
2018,08,21,01,11,3.20
2018,08,21,01,12,3.20
2018,08,21,01,13,3.20
2018,08,21,01,14,3.20
2018,08,21,01,18,1.60
2018,08,21,01,19,1.60
2018,08,21,01,20,3.20
2018,08,21,01,21,3.20
2018,08,21,01,22,4.80
2018,08,21,01,23,4.80
2018,08,21,01,24,4.80
2018,08,21,01,25,6.40
2018,08,21,01,26,4.80
2018,08,21,01,27,4.80
2018,08,21,01,28,4.80
2018,08,21,01,29,4.80
2018,08,21,01,30,3.20
2018,08,21,01,34,3.20
2018,08,21,01,35,1.60
2018,08,21,01,36,1.60
2018,08,21,01,57,6.40
2018,08,21,01,58,4.80
2018,08,21,01,59,6.40
2018,08,21,02,00,6.40
2018,08,21,02,01,4.80
2018,08,21,02,02,6.40
2018,08,21,02,03,4.80
2018,08,21,02,04,6.40
2018,08,21,02,05,6.40
2018,08,21,02,06,6.40
2018,08,21,02,07,4.80
2018,08,21,02,08,3.20
2018,08,21,02,09,3.20
2018,08,21,02,10,3.20
2018,08,21,02,11,3.20
2018,08,21,02,12,3.20
2018,08,21,02,16,3.20
2018,08,21,02,17,3.20
2018,08,21,02,18,1.60
2018,08,21,02,27,3.20
2018,08,21,02,28,1.60
2018,08,21,02,39,1.60
2018,08,21,02,40,1.60
2018,08,21,02,41,3.20
2018,08,21,02,42,3.20
2018,08,21,02,43,3.20
2018,08,21,02,44,3.20
2018,08,21,02,45,1.60
2018,08,21,02,46,4.80
2018,08,21,02,47,4.80
2018,08,21,02,48,4.80
2018,08,21,02,49,4.80
2018,08,21,02,50,4.80
2018,08,21,02,51,4.80
2018,08,21,02,52,4.80
2018,08,21,02,53,4.80
2018,08,21,02,54,4.80
2018,08,21,02,55,4.80
2018,08,21,02,56,4.80
2018,08,21,02,57,4.80
2018,08,21,02,58,4.80
2018,08,21,02,59,4.80
2018,08,21,03,00,6.40
2018,08,21,03,01,6.40
2018,08,21,03,02,6.40
2018,08,21,03,03,6.40
2018,08,21,03,04,6.40
2018,08,21,03,05,6.40
2018,08,21,03,06,4.80
2018,08,21,03,07,6.40
2018,08,21,03,08,9.60
2018,08,21,03,09,6.40
2018,08,21,03,10,6.40
2018,08,21,03,11,6.40
2018,08,21,03,12,6.40
2018,08,21,03,13,9.60
2018,08,21,03,14,11.30
2018,08,21,03,15,12.90
2018,08,21,03,16,11.30
2018,08,21,03,17,9.60
2018,08,21,03,18,9.60
2018,08,21,03,19,6.40
2018,08,21,03,20,9.60
2018,08,21,03,21,9.60
2018,08,21,03,22,6.40
2018,08,21,03,23,9.60
2018,08,21,03,24,11.30
2018,08,21,03,25,9.60
2018,08,21,03,26,9.60
2018,08,21,03,27,9.60
2018,08,21,03,28,6.40
2018,08,21,03,29,11.30
2018,08,21,03,30,11.30
2018,08,21,03,31,9.60
2018,08,21,03,32,9.60
2018,08,21,03,33,6.40
2018,08,21,03,34,6.40
2018,08,21,03,35,6.40
2018,08,21,03,36,4.80
2018,08,21,03,37,4.80
2018,08,21,03,38,4.80
2018,08,21,03,39,6.40
2018,08,21,03,40,6.40
2018,08,21,03,41,4.80
2018,08,21,03,42,4.80
2018,08,21,03,43,4.80
2018,08,21,03,44,6.40
2018,08,21,03,45,6.40
2018,08,21,03,46,9.60
2018,08,21,03,47,9.60
2018,08,21,03,48,6.40
2018,08,21,03,49,9.60
2018,08,21,03,50,9.60
2018,08,21,03,51,9.60
2018,08,21,03,52,9.60
2018,08,21,03,53,9.60
2018,08,21,03,54,9.60
2018,08,21,03,55,9.60
2018,08,21,03,56,6.40
2018,08,21,03,57,9.60
2018,08,21,03,58,9.60
2018,08,21,03,59,11.30
2018,08,21,04,00,11.30
2018,08,21,04,01,9.60
2018,08,21,04,02,6.40
2018,08,21,04,03,6.40
2018,08,21,04,04,9.60
2018,08,21,04,05,6.40
2018,08,21,04,06,6.40
2018,08,21,04,07,6.40
2018,08,21,04,08,6.40
2018,08,21,04,09,6.40
2018,08,21,04,10,4.80
2018,08,21,04,11,4.80
2018,08,21,04,12,4.80
2018,08,21,04,13,4.80
2018,08,21,04,14,4.80
2018,08,21,04,15,4.80
2018,08,21,04,16,4.80
2018,08,21,04,17,3.20
2018,08,21,04,18,4.80
2018,08,21,04,19,4.80
2018,08,21,04,20,6.40
2018,08,21,04,21,6.40
2018,08,21,04,22,4.80
2018,08,21,04,23,4.80
2018,08,21,04,24,11.30
2018,08,21,04,25,11.30
2018,08,21,04,26,12.90
2018,08,21,04,27,11.30
2018,08,21,04,28,14.50
2018,08,21,04,29,11.30
2018,08,21,04,30,12.90
2018,08,21,04,31,9.60
2018,08,21,04,32,12.90
2018,08,21,04,33,12.90
2018,08,21,04,34,14.50
2018,08,21,04,35,14.50
2018,08,21,04,36,12.90
2018,08,21,04,37,14.50
2018,08,21,04,38,14.50
2018,08,21,04,39,14.50
2018,08,21,04,40,12.90
2018,08,21,04,41,9.60
2018,08,21,04,42,12.90
2018,08,21,04,43,12.90
2018,08,21,04,44,12.90
2018,08,21,04,45,12.90
2018,08,21,04,46,9.60
2018,08,21,04,47,12.90
2018,08,21,04,48,12.90
2018,08,21,04,49,12.90
2018,08,21,04,50,12.90
2018,08,21,04,51,12.90
2018,08,21,04,52,12.90
2018,08,21,04,53,8.10
2018,08,21,04,54,8.10
2018,08,21,04,55,9.60
2018,08,21,04,56,8.10
2018,08,21,04,57,8.10
2018,08,21,04,58,8.10
2018,08,21,04,59,8.10
2018,08,21,05,00,6.40
2018,08,21,05,01,8.10
2018,08,21,05,02,9.60
2018,08,21,05,03,9.60
2018,08,21,05,04,9.60
2018,08,21,05,05,9.60
2018,08,21,05,06,9.60
2018,08,21,05,07,8.10
2018,08,21,05,08,8.10
2018,08,21,05,09,8.10
2018,08,21,05,10,8.10
2018,08,21,05,11,8.10
2018,08,21,05,12,9.60
2018,08,21,05,13,9.60
2018,08,21,05,14,12.90
2018,08,21,05,15,9.60
2018,08,21,05,16,12.90
2018,08,21,05,17,14.50
2018,08,21,05,18,14.50
2018,08,21,05,19,16.10
2018,08,21,05,20,16.10
2018,08,21,05,21,14.50
2018,08,21,05,22,16.10
2018,08,21,05,23,16.10
2018,08,21,05,24,14.50
2018,08,21,05,25,12.90
2018,08,21,05,26,16.10
2018,08,21,05,27,16.10
2018,08,21,05,28,17.70
2018,08,21,05,29,17.70
2018,08,21,05,30,16.10
2018,08,21,05,31,14.50
2018,08,21,05,32,14.50
2018,08,21,05,33,14.50
2018,08,21,05,34,14.50
2018,08,21,05,35,14.50
2018,08,21,05,36,16.10
2018,08,21,05,37,14.50
2018,08,21,05,38,12.90
2018,08,21,05,39,12.90
2018,08,21,05,40,14.50
2018,08,21,05,41,12.90
2018,08,21,05,42,11.30
2018,08,21,05,43,11.30
2018,08,21,05,44,12.90
2018,08,21,05,45,8.10
2018,08,21,05,46,11.30
2018,08,21,05,47,8.10
2018,08,21,05,48,8.10
2018,08,21,05,49,11.30
2018,08,21,05,50,8.10
2018,08,21,05,51,8.10
2018,08,21,05,52,11.30
2018,08,21,05,53,11.30
2018,08,21,05,54,8.10
2018,08,21,05,55,6.40
2018,08,21,05,56,8.10
2018,08,21,05,57,8.10
2018,08,21,05,58,8.10
2018,08,21,05,59,8.10
2018,08,21,06,00,8.10
2018,08,21,06,01,8.10
2018,08,21,06,02,8.10
2018,08,21,06,03,9.60
2018,08,21,06,04,9.60
2018,08,21,06,05,9.60
2018,08,21,06,06,11.30
2018,08,21,06,07,8.10
2018,08,21,06,08,8.10
2018,08,21,06,09,8.10
2018,08,21,06,10,11.30
2018,08,21,06,11,8.10
2018,08,21,06,12,8.10
2018,08,21,06,13,8.10
2018,08,21,06,14,8.10
2018,08,21,06,15,8.10
2018,08,21,06,16,8.10
2018,08,21,06,17,6.40
2018,08,21,06,18,8.10
2018,08,21,06,19,8.10
2018,08,21,06,20,8.10
2018,08,21,06,21,6.40
2018,08,21,06,22,8.10
2018,08,21,06,23,6.40
2018,08,21,06,24,6.40
2018,08,21,06,25,6.40
2018,08,21,06,26,6.40
2018,08,21,06,27,8.10
2018,08,21,06,28,8.10
2018,08,21,06,29,8.10
2018,08,21,06,30,6.40
2018,08,21,06,31,6.40
2018,08,21,06,32,6.40
2018,08,21,06,33,4.80
2018,08,21,06,34,6.40
2018,08,21,06,35,6.40
2018,08,21,06,36,6.40
2018,08,21,06,37,6.40
2018,08,21,06,38,6.40
2018,08,21,06,39,8.10
2018,08,21,06,40,6.40
2018,08,21,06,41,8.10
2018,08,21,06,42,8.10
2018,08,21,06,43,8.10
2018,08,21,06,44,8.10
2018,08,21,06,45,9.60
2018,08,21,06,46,9.60
2018,08,21,06,47,9.60
2018,08,21,06,48,12.90
2018,08,21,06,49,12.90
2018,08,21,06,50,12.90
2018,08,21,06,51,12.90
2018,08,21,06,52,12.90
2018,08,21,06,53,9.60
2018,08,21,06,54,12.90
2018,08,21,06,55,9.60
2018,08,21,06,56,9.60
2018,08,21,06,57,9.60
2018,08,21,06,58,9.60
2018,08,21,06,59,8.10
2018,08,21,07,00,6.40
2018,08,21,07,01,8.10
2018,08,21,07,02,8.10
2018,08,21,07,03,8.10
2018,08,21,07,04,8.10
2018,08,21,07,05,8.10
2018,08,21,07,06,8.10
2018,08,21,07,07,8.10
2018,08,21,07,08,9.60
2018,08,21,07,09,8.10
2018,08,21,07,10,9.60
2018,08,21,07,11,12.90
2018,08,21,07,12,12.90
2018,08,21,07,13,12.90
2018,08,21,07,14,12.90
2018,08,21,07,15,12.90
2018,08,21,07,16,12.90
2018,08,21,07,17,12.90
2018,08,21,07,18,12.90
2018,08,21,07,19,9.60
2018,08,21,07,20,9.60
2018,08,21,07,21,8.10
2018,08,21,07,22,8.10
2018,08,21,07,23,8.10
2018,08,21,07,24,6.40
2018,08,21,07,25,8.10
2018,08,21,07,26,6.40
2018,08,21,07,27,8.10
2018,08,21,07,28,8.10
2018,08,21,07,29,8.10
2018,08,21,07,30,6.40
2018,08,21,07,31,6.40
2018,08,21,07,32,6.40
2018,08,21,07,33,6.40
2018,08,21,07,34,6.40
2018,08,21,07,35,6.40
2018,08,21,07,36,8.10
2018,08,21,07,37,8.10
2018,08,21,07,38,6.40
2018,08,21,07,39,6.40
2018,08,21,07,40,6.40
2018,08,21,07,41,8.10
2018,08,21,07,42,8.10
2018,08,21,07,43,8.10
2018,08,21,07,44,8.10
2018,08,21,07,45,9.60
2018,08,21,07,46,8.10
2018,08,21,07,47,8.10
2018,08,21,07,48,8.10
2018,08,21,07,49,9.60
2018,08,21,07,50,8.10
2018,08,21,07,51,8.10
2018,08,21,07,52,8.10
2018,08,21,07,53,8.10
2018,08,21,07,54,8.10
2018,08,21,07,55,6.40
2018,08,21,07,56,6.40
2018,08,21,07,57,6.40
2018,08,21,07,58,4.80
2018,08,21,07,59,4.80
2018,08,21,08,00,4.80
2018,08,21,08,01,6.40
2018,08,21,08,02,6.40
2018,08,21,08,03,8.10
2018,08,21,08,04,6.40
2018,08,21,08,05,6.40
2018,08,21,08,06,4.80
2018,08,21,08,07,8.10
2018,08,21,08,08,6.40
2018,08,21,08,09,8.10
2018,08,21,08,10,8.10
2018,08,21,08,11,6.40
2018,08,21,08,12,8.10
2018,08,21,08,13,9.60
2018,08,21,08,14,9.60
2018,08,21,08,15,8.10
2018,08,21,08,16,6.40
2018,08,21,08,17,11.30
2018,08,21,08,18,11.30
2018,08,21,08,19,9.60
2018,08,21,08,20,9.60
2018,08,21,08,21,8.10
2018,08,21,08,22,8.10
2018,08,21,08,23,6.40
2018,08,21,08,24,6.40
2018,08,21,08,25,8.10
2018,08,21,08,26,8.10
2018,08,21,08,27,8.10
2018,08,21,08,28,6.40
2018,08,21,08,29,8.10
2018,08,21,08,30,8.10
2018,08,21,08,31,8.10
2018,08,21,08,32,8.10
2018,08,21,08,33,8.10
2018,08,21,08,34,9.60
2018,08,21,08,35,9.60
2018,08,21,08,36,9.60
2018,08,21,08,37,9.60
2018,08,21,08,38,8.10
2018,08,21,08,39,8.10
2018,08,21,08,40,9.60
2018,08,21,08,41,9.60
2018,08,21,08,42,9.60
2018,08,21,08,43,9.60
2018,08,21,08,44,9.60
2018,08,21,08,45,4.80
2018,08,21,08,46,6.40
2018,08,21,08,47,6.40
2018,08,21,08,48,6.40
2018,08,21,08,49,4.80
2018,08,21,08,50,6.40
2018,08,21,08,51,6.40
2018,08,21,08,52,6.40
2018,08,21,08,53,6.40
2018,08,21,08,54,6.40
2018,08,21,08,55,6.40
2018,08,21,08,56,4.80
2018,08,21,08,57,6.40
2018,08,21,08,58,4.80
2018,08,21,08,59,4.80
2018,08,21,09,00,3.20
2018,08,21,09,01,6.40
2018,08,21,09,02,4.80
2018,08,21,09,03,6.40
2018,08,21,09,04,4.80
2018,08,21,09,05,4.80
2018,08,21,09,06,6.40
2018,08,21,09,07,4.80
2018,08,21,09,08,3.20
2018,08,21,09,09,4.80
2018,08,21,09,10,4.80
2018,08,21,09,11,4.80
2018,08,21,09,12,6.40
2018,08,21,09,13,8.10
2018,08,21,09,14,8.10
2018,08,21,09,15,8.10
2018,08,21,09,16,8.10
2018,08,21,09,17,8.10
2018,08,21,09,18,8.10
2018,08,21,09,19,6.40
2018,08,21,09,20,6.40
2018,08,21,09,21,8.10
2018,08,21,09,22,8.10
2018,08,21,09,23,6.40
2018,08,21,09,24,4.80
2018,08,21,09,25,4.80
2018,08,21,09,26,6.40
2018,08,21,09,27,4.80
2018,08,21,09,28,6.40
2018,08,21,09,29,4.80
2018,08,21,09,30,6.40
2018,08,21,09,31,6.40
2018,08,21,09,32,4.80
2018,08,21,09,33,6.40
2018,08,21,09,34,6.40
2018,08,21,09,35,6.40
2018,08,21,09,36,6.40
2018,08,21,09,37,4.80
2018,08,21,09,38,4.80
2018,08,21,09,39,4.80
2018,08,21,09,40,6.40
2018,08,21,09,41,4.80
2018,08,21,09,42,4.80
2018,08,21,09,43,4.80
2018,08,21,09,44,4.80
2018,08,21,09,45,3.20
2018,08,21,09,46,4.80
2018,08,21,09,47,3.20
2018,08,21,09,48,3.20
2018,08,21,09,49,3.20
2018,08,21,09,50,3.20
2018,08,21,09,51,4.80
2018,08,21,09,52,4.80
2018,08,21,09,53,6.40
2018,08,21,09,54,4.80
2018,08,21,09,55,4.80
2018,08,21,09,56,6.40
2018,08,21,09,57,6.40
2018,08,21,09,58,6.40
2018,08,21,09,59,4.80
2018,08,21,10,00,6.40
2018,08,21,10,01,6.40
2018,08,21,10,02,6.40
2018,08,21,10,03,6.40
2018,08,21,10,04,8.10
2018,08,21,10,05,6.40
2018,08,21,10,06,8.10
2018,08,21,10,07,8.10
2018,08,21,10,08,6.40
2018,08,21,10,09,11.30
2018,08,21,10,10,11.30
2018,08,21,10,11,9.60
2018,08,21,10,12,12.90
2018,08,21,10,13,9.60
2018,08,21,10,14,9.60
2018,08,21,10,15,8.10
2018,08,21,10,16,9.60
2018,08,21,10,17,9.60
2018,08,21,10,18,9.60
2018,08,21,10,19,9.60
2018,08,21,10,20,8.10
2018,08,21,10,21,9.60
2018,08,21,10,22,8.10
2018,08,21,10,23,6.40
2018,08,21,10,24,9.60
2018,08,21,10,25,9.60
2018,08,21,10,26,8.10
2018,08,21,10,27,9.60
2018,08,21,10,28,8.10
2018,08,21,10,29,8.10
2018,08,21,10,30,8.10
2018,08,21,10,31,8.10
2018,08,21,10,32,9.60
2018,08,21,10,33,8.10
2018,08,21,10,34,6.40
2018,08,21,10,35,8.10
2018,08,21,10,36,8.10
2018,08,21,10,37,6.40
2018,08,21,10,38,8.10
2018,08,21,10,39,6.40
2018,08,21,10,40,6.40
2018,08,21,10,41,4.80
2018,08,21,10,42,6.40
2018,08,21,10,43,6.40
2018,08,21,10,44,6.40
2018,08,21,10,45,6.40
2018,08,21,10,46,8.10
2018,08,21,10,47,6.40
2018,08,21,10,48,4.80
2018,08,21,10,49,6.40
2018,08,21,10,50,6.40
2018,08,21,10,51,4.80
2018,08,21,10,52,6.40
2018,08,21,10,53,8.10
2018,08,21,10,54,8.10
2018,08,21,10,55,6.40
2018,08,21,10,56,6.40
2018,08,21,10,57,6.40
2018,08,21,10,58,8.10
2018,08,21,10,59,6.40
2018,08,21,11,00,8.10
2018,08,21,11,01,6.40
2018,08,21,11,02,8.10
2018,08,21,11,03,6.40
2018,08,21,11,04,6.40
2018,08,21,11,05,6.40
2018,08,21,11,06,6.40
2018,08,21,11,07,4.80
2018,08,21,11,08,6.40
2018,08,21,11,09,6.40
2018,08,21,11,10,6.40
2018,08,21,11,11,6.40
2018,08,21,11,12,6.40
2018,08,21,11,13,8.10
2018,08,21,11,14,8.10
2018,08,21,11,15,6.40
2018,08,21,11,16,8.10
2018,08,21,11,17,4.80
2018,08,21,11,18,4.80
2018,08,21,11,19,4.80
2018,08,21,11,20,6.40
2018,08,21,11,21,6.40
2018,08,21,11,22,6.40
2018,08,21,11,23,4.80
2018,08,21,11,24,6.40
2018,08,21,11,25,6.40
2018,08,21,11,26,4.80
2018,08,21,11,27,6.40
2018,08,21,11,28,6.40
2018,08,21,11,29,4.80
2018,08,21,11,30,3.20
2018,08,21,11,31,3.20
2018,08,21,11,32,3.20
2018,08,21,11,33,4.80
2018,08,21,11,34,4.80
2018,08,21,11,35,4.80
2018,08,21,11,36,3.20
2018,08,21,11,37,8.10
2018,08,21,11,38,9.60
2018,08,21,11,39,6.40
2018,08,21,11,40,4.80
2018,08,21,11,41,3.20
2018,08,21,11,42,3.20
2018,08,21,11,43,4.80
2018,08,21,11,44,4.80
2018,08,21,11,45,4.80
2018,08,21,11,46,4.80
2018,08,21,11,47,6.40
2018,08,21,11,48,6.40
2018,08,21,11,49,11.30
2018,08,21,11,50,6.40
2018,08,21,11,51,6.40
2018,08,21,11,52,6.40
2018,08,21,11,53,6.40
2018,08,21,11,54,4.80
2018,08,21,11,55,8.10
2018,08,21,11,56,6.40
2018,08,21,11,57,4.80
2018,08,21,11,58,6.40
2018,08,21,11,59,4.80
2018,08,21,12,00,3.20
2018,08,21,12,01,4.80
2018,08,21,12,02,4.80
2018,08,21,12,03,6.40
2018,08,21,12,04,6.40
2018,08,21,12,05,4.80
2018,08,21,12,06,4.80
2018,08,21,12,07,6.40
2018,08,21,12,08,6.40
2018,08,21,12,09,6.40
2018,08,21,12,10,6.40
2018,08,21,12,11,6.40
2018,08,21,12,12,6.40
2018,08,21,12,13,4.80
2018,08,21,12,14,4.80
2018,08,21,12,15,4.80
2018,08,21,12,16,4.80
2018,08,21,12,17,4.80
2018,08,21,12,18,4.80
2018,08,21,12,19,4.80
2018,08,21,12,20,4.80
2018,08,21,12,21,4.80
2018,08,21,12,22,6.40
2018,08,21,12,23,6.40
2018,08,21,12,24,6.40
2018,08,21,12,25,6.40
2018,08,21,12,26,6.40
2018,08,21,12,27,6.40
2018,08,21,12,28,4.80
2018,08,21,12,29,4.80
2018,08,21,12,30,4.80
2018,08,21,12,31,4.80
2018,08,21,12,32,4.80
2018,08,21,12,33,4.80
2018,08,21,12,34,4.80
2018,08,21,12,35,6.40
2018,08,21,12,36,6.40
2018,08,21,12,37,4.80
2018,08,21,12,38,6.40
2018,08,21,12,39,6.40
2018,08,21,12,40,4.80
2018,08,21,12,41,4.80
2018,08,21,12,42,3.20
2018,08,21,12,43,4.80
2018,08,21,12,44,4.80
2018,08,21,12,45,4.80
2018,08,21,12,46,4.80
2018,08,21,12,47,3.20
2018,08,21,12,48,4.80
2018,08,21,12,49,4.80
2018,08,21,12,50,3.20
2018,08,21,12,51,3.20
2018,08,21,12,52,3.20
2018,08,21,12,53,3.20
2018,08,21,12,54,1.60
2018,08,21,12,55,4.80
2018,08,21,12,56,4.80
2018,08,21,12,57,3.20
2018,08,21,12,58,4.80
2018,08,21,12,59,4.80
2018,08,21,13,00,4.80
2018,08,21,13,01,4.80
2018,08,21,13,02,4.80
2018,08,21,13,03,4.80
2018,08,21,13,04,4.80
2018,08,21,13,05,4.80
2018,08,21,13,06,4.80
2018,08,21,13,07,6.40
2018,08,21,13,08,4.80
2018,08,21,13,09,4.80
2018,08,21,13,10,4.80
2018,08,21,13,11,4.80
2018,08,21,13,12,6.40
2018,08,21,13,13,6.40
2018,08,21,13,14,6.40
2018,08,21,13,15,6.40
2018,08,21,13,16,6.40
2018,08,21,13,17,6.40
2018,08,21,13,18,6.40
2018,08,21,13,19,6.40
2018,08,21,13,20,6.40
2018,08,21,13,21,6.40
2018,08,21,13,22,6.40
2018,08,21,13,23,6.40
2018,08,21,13,24,4.80
2018,08,21,13,25,4.80
2018,08,21,13,26,4.80
2018,08,21,13,27,3.20
2018,08,21,13,28,3.20
2018,08,21,13,29,3.20
2018,08,21,13,30,3.20
2018,08,21,13,31,1.60
2018,08,21,13,32,1.60
2018,08,21,13,33,3.20
2018,08,21,13,34,3.20
2018,08,21,13,35,3.20
2018,08,21,13,36,3.20
2018,08,21,13,37,4.80
2018,08,21,13,38,3.20
2018,08,21,13,39,3.20
2018,08,21,13,40,3.20
2018,08,21,13,41,4.80
2018,08,21,13,42,3.20
2018,08,21,13,43,3.20
2018,08,21,13,44,3.20
2018,08,21,13,45,3.20
2018,08,21,13,46,3.20
2018,08,21,13,47,3.20
2018,08,21,13,48,3.20
2018,08,21,13,49,3.20
2018,08,21,13,50,3.20
2018,08,21,13,51,3.20
2018,08,21,13,52,3.20
2018,08,21,13,53,3.20
2018,08,21,13,54,4.80
2018,08,21,13,55,4.80
2018,08,21,13,56,3.20
2018,08,21,13,57,4.80
2018,08,21,13,58,4.80
2018,08,21,13,59,3.20
2018,08,21,14,00,4.80
2018,08,21,14,01,4.80
2018,08,21,14,02,3.20
2018,08,21,14,03,3.20
2018,08,21,14,04,4.80
2018,08,21,14,05,4.80
2018,08,21,14,06,4.80
2018,08,21,14,07,4.80
2018,08,21,14,08,4.80
2018,08,21,14,09,6.40
2018,08,21,14,10,4.80
2018,08,21,14,11,6.40
2018,08,21,14,12,4.80
2018,08,21,14,13,4.80
2018,08,21,14,14,4.80
2018,08,21,14,15,4.80
2018,08,21,14,16,4.80
2018,08,21,14,17,4.80
2018,08,21,14,18,4.80
2018,08,21,14,19,4.80
2018,08,21,14,20,6.40
2018,08,21,14,21,4.80
2018,08,21,14,22,4.80
2018,08,21,14,23,4.80
2018,08,21,14,24,4.80
2018,08,21,14,25,4.80
2018,08,21,14,26,4.80
2018,08,21,14,27,4.80
2018,08,21,14,28,4.80
2018,08,21,14,29,4.80
2018,08,21,14,30,6.40
2018,08,21,14,31,4.80
2018,08,21,14,32,4.80
2018,08,21,14,33,4.80
2018,08,21,14,34,4.80
2018,08,21,14,35,4.80
2018,08,21,14,36,4.80
2018,08,21,14,37,4.80
2018,08,21,14,38,3.20
2018,08,21,14,39,4.80
2018,08,21,14,40,3.20
2018,08,21,14,41,3.20
2018,08,21,14,42,3.20
2018,08,21,14,43,4.80
2018,08,21,14,44,4.80
2018,08,21,14,45,4.80
2018,08,21,14,46,4.80
2018,08,21,14,47,4.80
2018,08,21,14,48,4.80
2018,08,21,14,49,3.20
2018,08,21,14,50,4.80
2018,08,21,14,51,4.80
2018,08,21,14,52,4.80
2018,08,21,14,53,4.80
2018,08,21,14,54,4.80
2018,08,21,14,55,4.80
2018,08,21,14,56,4.80
2018,08,21,14,57,4.80
2018,08,21,14,58,6.40
2018,08,21,14,59,4.80
2018,08,21,15,00,4.80
2018,08,21,15,01,4.80
2018,08,21,15,02,4.80
2018,08,21,15,03,4.80
2018,08,21,15,04,4.80
2018,08,21,15,05,3.20
2018,08,21,15,06,3.20
2018,08,21,15,07,4.80
2018,08,21,15,08,3.20
2018,08,21,15,09,3.20
2018,08,21,15,10,3.20
2018,08,21,15,11,4.80
2018,08,21,15,12,4.80
2018,08,21,15,13,4.80
2018,08,21,15,14,6.40
2018,08,21,15,15,6.40
2018,08,21,15,16,4.80
2018,08,21,15,17,6.40
2018,08,21,15,18,4.80
2018,08,21,15,19,3.20
2018,08,21,15,20,3.20
2018,08,21,15,21,3.20
2018,08,21,15,22,3.20
2018,08,21,15,23,3.20
2018,08,21,15,24,3.20
2018,08,21,15,25,3.20
2018,08,21,15,26,3.20
2018,08,21,15,27,1.60
2018,08,21,15,28,3.20
2018,08,21,15,29,3.20
2018,08,21,15,30,3.20
2018,08,21,15,31,3.20
2018,08,21,15,32,3.20
2018,08,21,15,33,3.20
2018,08,21,15,34,3.20
2018,08,21,15,35,4.80
2018,08,21,15,36,4.80
2018,08,21,15,37,3.20
2018,08,21,15,38,4.80
2018,08,21,15,39,4.80
2018,08,21,15,40,3.20
2018,08,21,15,41,4.80
2018,08,21,15,42,4.80
2018,08,21,15,43,3.20
2018,08,21,15,44,3.20
2018,08,21,15,45,3.20
2018,08,21,15,46,4.80
2018,08,21,15,47,3.20
2018,08,21,15,48,3.20
2018,08,21,15,49,3.20
2018,08,21,15,50,3.20
2018,08,21,15,51,3.20
2018,08,21,15,52,3.20
2018,08,21,15,53,3.20
2018,08,21,15,54,3.20
2018,08,21,15,55,3.20
2018,08,21,15,56,3.20
2018,08,21,15,57,3.20
2018,08,21,15,58,3.20
2018,08,21,15,59,1.60
2018,08,21,16,00,1.60
2018,08,21,16,01,1.60
2018,08,21,16,02,1.60
2018,08,21,16,03,1.60
2018,08,21,16,04,1.60
2018,08,21,16,05,1.60
2018,08,21,16,06,1.60
2018,08,21,16,07,1.60
2018,08,21,16,10,3.20
2018,08,21,16,11,3.20
2018,08,21,16,12,1.60
2018,08,21,16,13,3.20
2018,08,21,16,14,1.60
2018,08,21,16,15,1.60
2018,08,21,16,16,1.60
2018,08,21,16,17,3.20
2018,08,21,16,18,4.80
2018,08,21,16,19,4.80
2018,08,21,16,20,3.20
2018,08,21,16,21,4.80
2018,08,21,16,22,4.80
2018,08,21,16,23,3.20
2018,08,21,16,24,3.20
2018,08,21,16,25,4.80
2018,08,21,16,26,3.20
2018,08,21,16,27,3.20
2018,08,21,16,28,3.20
2018,08,21,16,29,6.40
2018,08,21,16,30,6.40
2018,08,21,16,31,3.20
2018,08,21,16,32,1.60
2018,08,21,16,33,6.40
2018,08,21,16,34,4.80
2018,08,21,16,35,1.60
2018,08,21,16,36,3.20
2018,08,21,16,37,3.20
2018,08,21,16,38,3.20
2018,08,21,16,39,3.20
2018,08,21,16,40,3.20
2018,08,21,16,41,3.20
2018,08,21,16,42,3.20
2018,08,21,16,43,3.20
2018,08,21,16,44,3.20
2018,08,21,16,45,3.20
2018,08,21,16,46,4.80
2018,08,21,16,47,3.20
2018,08,21,16,48,3.20
2018,08,21,16,49,4.80
2018,08,21,16,50,4.80
2018,08,21,16,51,4.80
2018,08,21,16,52,4.80
2018,08,21,16,53,3.20
2018,08,21,16,54,8.10
2018,08,21,16,55,6.40
2018,08,21,16,56,4.80
2018,08,21,16,57,4.80
2018,08,21,16,58,8.10
2018,08,21,16,59,6.40
2018,08,21,17,00,6.40
2018,08,21,17,01,6.40
2018,08,21,17,02,6.40
2018,08,21,17,03,8.10
2018,08,21,17,04,6.40
2018,08,21,17,05,6.40
2018,08,21,17,06,6.40
2018,08,21,17,07,6.40
2018,08,21,17,08,4.80
2018,08,21,17,09,4.80
2018,08,21,17,10,6.40
2018,08,21,17,11,6.40
2018,08,21,17,12,6.40
2018,08,21,17,13,6.40
2018,08,21,17,14,6.40
2018,08,21,17,15,6.40
2018,08,21,17,16,6.40
2018,08,21,17,17,6.40
2018,08,21,17,18,6.40
2018,08,21,17,19,6.40
2018,08,21,17,20,8.10
2018,08,21,17,21,8.10
2018,08,21,17,22,8.10
2018,08,21,17,23,8.10
2018,08,21,17,24,8.10
2018,08,21,17,25,6.40
2018,08,21,17,26,8.10
2018,08,21,17,27,8.10
2018,08,21,17,28,8.10
2018,08,21,17,29,6.40
2018,08,21,17,30,6.40
2018,08,21,17,31,6.40
2018,08,21,17,32,8.10
2018,08,21,17,33,8.10
2018,08,21,17,34,8.10
2018,08,21,17,35,8.10
2018,08,21,17,36,6.40
2018,08,21,17,37,6.40
2018,08,21,17,38,6.40
2018,08,21,17,39,6.40
2018,08,21,17,40,6.40
2018,08,21,17,41,4.80
2018,08,21,17,42,4.80
2018,08,21,17,43,6.40
2018,08,21,17,44,4.80
2018,08,21,17,45,6.40
2018,08,21,17,46,6.40
2018,08,21,17,47,6.40
2018,08,21,17,48,6.40
2018,08,21,17,49,6.40
2018,08,21,17,50,6.40
2018,08,21,17,51,4.80
2018,08,21,17,52,4.80
2018,08,21,17,53,6.40
2018,08,21,17,54,6.40
2018,08,21,17,55,6.40
2018,08,21,17,56,6.40
2018,08,21,17,57,6.40
2018,08,21,17,58,6.40
2018,08,21,17,59,4.80
2018,08,21,18,00,8.10
2018,08,21,18,01,11.30
2018,08,21,18,02,11.30
2018,08,21,18,03,11.30
2018,08,21,18,04,11.30
2018,08,21,18,05,12.90
2018,08,21,18,06,11.30
2018,08,21,18,07,11.30
2018,08,21,18,08,11.30
2018,08,21,18,09,11.30
2018,08,21,18,10,8.10
2018,08,21,18,11,8.10
2018,08,21,18,12,11.30
2018,08,21,18,13,8.10
2018,08,21,18,14,12.90
2018,08,21,18,15,12.90
2018,08,21,18,16,11.30
2018,08,21,18,17,12.90
2018,08,21,18,18,11.30
2018,08,21,18,19,11.30
2018,08,21,18,20,11.30
2018,08,21,18,21,12.90
2018,08,21,18,22,11.30
2018,08,21,18,23,11.30
2018,08,21,18,24,8.10
2018,08,21,18,25,11.30
2018,08,21,18,26,11.30
2018,08,21,18,27,14.50
2018,08,21,18,28,12.90
2018,08,21,18,29,11.30
2018,08,21,18,30,12.90
2018,08,21,18,31,11.30
2018,08,21,18,32,12.90
2018,08,21,18,33,14.50
2018,08,21,18,34,12.90
2018,08,21,18,35,16.10
2018,08,21,18,36,16.10
2018,08,21,18,37,16.10
2018,08,21,18,38,16.10
2018,08,21,18,39,14.50
2018,08,21,18,40,14.50
2018,08,21,18,41,14.50
2018,08,21,18,42,12.90
2018,08,21,18,43,14.50
2018,08,21,18,44,14.50
2018,08,21,18,45,14.50
2018,08,21,18,46,14.50
2018,08,21,18,47,14.50
2018,08,21,18,48,14.50
2018,08,21,18,49,14.50